Погода в Боровском

Украина / Луганская область     48˚52′05″N   38˚33′49″E
темп.,
°C
ветер,
м/с
пор.,
м/с
влажн.,
%
обл.,
%
осадки,
мм/ч
давл.,
гПа
погр.,
м
5 декабря, сб
сб523:00−4˚вюв713550 0.0 1034463
02:00−4˚в712590 0.0 1035443
05:00−5˚в712600 0.0 1035416
08:00−5˚в712530 0.0 1035422
11:00−3˚в712420 0.0 1035473
14:00−1˚в711380 0.0 1035508
17:00−4˚в713460 0.0 1036440
20:00−5˚в712500 0.0 1037426
6 декабря, вс
вс623:00−6˚в612510 0.0 1037402
02:00−7˚в611580 0.0 1038400
05:00−7˚в611620 0.0 1037418
08:00−7˚в712740 0.0 1038436
11:00−5˚в711610 0.0 1037546
14:00−5˚в611580 0.0 1036589
17:00−6˚в613700 0.0 1037556
20:00−7˚в713710 0.0 1037551
7 декабря, пн
пн723:00−7˚в714710 0.0 1037522
02:00−8˚в713700 0.0 1037516
05:00−8˚в714690 0.0 1037502
08:00−8˚в814670 0.0 1037507
11:00−5˚в814520 0.0 1036568
14:00−4˚в813440 0.0 1035633
17:00−5˚в714540 0.0 1035536
20:00−6˚в714600 0.0 1036519
8 декабря, вт
вт823:00−7˚в714590 0.0 1035490
02:00−7˚в715620 0.0 1034463
05:00−7˚в714630 0.0 1034440
08:00−7˚в715640 0.0 1034463
11:00−4˚в712510 0.0 1033525
14:00−3˚в712470 0.0 1032587
17:00−5˚в614570 0.0 1032546
20:00−6˚в714600 0.0 1033477
9 декабря, ср
ср923:00−6˚в713630 0.0 1032430
02:00−6˚в714674 0.0 1032503
05:00−6˚в7147589 0.0 1031482
08:00−5˚в7138293 0.1 1031548
11:00−3˚вюв71180100 0.1 1032593
14:00−2˚вюв61178100 0.1 1031590
17:00−2˚вюв61278100 0.0 1032576
20:00−2˚вюв71274100 0.0 1032539